SPINSAT

Last updated on March 12, 2017, 12:15 a.m. UTC

1 40314U 98067FL  17070.86633509  .10752586  12608-4  10533-3 0  9997
2 40314  51.6077  46.2938 0005698 162.2115 198.1476 16.50743229182756

Satellite is not in orbit.